Time,TemperatureF,DewpointF,PressureIn,WindDirection,WindDirectionDegrees,WindSpeedMPH,WindSpeedGustMPH,Humidity,HourlyPrecipIn,Conditions,Clouds,dailyrainin,SoftwareType,DateUTC
2013-05-19 00:01:00,51.1,44.1,30.34,NE,45,0.0,0.0,77,0.00,,,0.00,pywws,2013-05-18 23:01:00,
2013-05-19 00:06:00,51.1,44.1,30.34,NE,45,0.0,0.0,77,0.00,,,0.00,pywws,2013-05-18 23:06:00,
2013-05-19 00:11:00,50.4,44.1,30.34,NE,45,0.0,0.0,79,0.00,,,0.00,pywws,2013-05-18 23:11:00,
2013-05-19 00:17:00,50.2,44.3,30.34,NE,45,0.0,0.0,80,0.00,,,0.00,pywws,2013-05-18 23:17:00,
2013-05-19 00:22:00,50.0,44.4,30.34,NE,45,0.0,0.0,81,0.00,,,0.00,pywws,2013-05-18 23:22:00,
2013-05-19 00:27:00,50.0,44.7,30.34,NE,45,0.0,0.0,82,0.00,,,0.00,pywws,2013-05-18 23:27:00,
2013-05-19 00:32:00,50.0,44.7,30.33,NE,45,0.0,0.0,82,0.00,,,0.00,pywws,2013-05-18 23:32:00,
2013-05-19 00:37:00,49.8,44.5,30.33,NE,45,0.0,0.0,82,0.00,,,0.00,pywws,2013-05-18 23:37:00,
2013-05-19 00:42:00,50.0,45.0,30.33,NE,45,0.0,0.0,83,0.00,,,0.00,pywws,2013-05-18 23:42:00,
2013-05-19 00:47:00,49.8,44.9,30.33,NE,45,0.0,0.0,83,0.00,,,0.00,pywws,2013-05-18 23:47:00,
2013-05-19 00:52:00,49.6,44.7,30.33,NE,45,0.0,0.0,83,0.00,,,0.00,pywws,2013-05-18 23:52:00,
2013-05-19 00:57:00,49.3,44.3,30.33,NE,45,0.0,0.0,83,0.00,,,0.00,pywws,2013-05-18 23:57:00,
2013-05-19 01:02:00,49.1,44.2,30.34,NE,45,0.0,0.0,83,0.00,,,0.00,pywws,2013-05-19 00:02:00,
2013-05-19 01:07:00,48.7,44.1,30.34,NE,45,0.0,0.0,84,0.00,,,0.00,pywws,2013-05-19 00:07:00,
2013-05-19 01:12:00,48.7,44.4,30.34,NE,45,0.0,0.0,85,0.00,,,0.00,pywws,2013-05-19 00:12:00,
2013-05-19 01:17:00,48.7,44.7,30.35,NE,45,0.0,0.0,86,0.00,,,0.00,pywws,2013-05-19 00:17:00,
2013-05-19 01:22:00,48.7,44.7,30.35,NE,45,0.0,0.0,86,0.00,,,0.00,pywws,2013-05-19 00:22:00,
2013-05-19 01:28:00,49.1,45.4,30.34,NE,45,0.0,0.0,87,0.00,,,0.00,pywws,2013-05-19 00:28:00,
2013-05-19 01:33:00,49.1,45.4,30.34,NE,45,0.0,0.0,87,0.00,,,0.00,pywws,2013-05-19 00:33:00,
2013-05-19 01:38:00,49.3,45.6,30.34,NE,45,0.0,0.0,87,0.00,,,0.00,pywws,2013-05-19 00:38:00,
2013-05-19 01:43:00,49.5,45.8,30.34,NE,45,0.0,0.0,87,0.00,,,0.00,pywws,2013-05-19 00:43:00,
2013-05-19 01:48:00,49.6,45.9,30.34,NE,45,0.0,0.0,87,0.00,,,0.00,pywws,2013-05-19 00:48:00,
2013-05-19 01:53:00,49.6,45.6,30.34,NE,45,0.0,0.0,86,0.00,,,0.00,pywws,2013-05-19 00:53:00,
2013-05-19 01:58:00,49.6,45.6,30.34,NE,45,0.0,0.0,86,0.00,,,0.00,pywws,2013-05-19 00:58:00,
2013-05-19 02:04:00,49.6,45.6,30.34,NE,45,0.0,0.0,86,0.00,,,0.00,pywws,2013-05-19 01:04:00,
2013-05-19 02:09:00,49.8,46.1,30.34,NE,45,0.0,0.0,87,0.00,,,0.00,pywws,2013-05-19 01:09:00,
2013-05-19 02:14:00,49.6,45.6,30.34,NE,45,0.0,0.0,86,0.00,,,0.00,pywws,2013-05-19 01:14:00,
2013-05-19 02:19:00,49.6,45.6,30.34,NE,45,0.0,0.0,86,0.00,,,0.00,pywws,2013-05-19 01:19:00,
2013-05-19 02:24:00,49.5,45.4,30.35,NE,45,0.0,0.0,86,0.00,,,0.00,pywws,2013-05-19 01:24:00,
2013-05-19 02:29:00,49.5,45.4,30.34,NE,45,0.0,0.0,86,0.00,,,0.00,pywws,2013-05-19 01:29:00,
2013-05-19 02:34:00,49.3,45.3,30.35,NE,45,0.0,0.0,86,0.00,,,0.00,pywws,2013-05-19 01:34:00,
2013-05-19 02:39:00,48.9,45.2,30.35,NE,45,0.0,0.0,87,0.00,,,0.00,pywws,2013-05-19 01:39:00,
2013-05-19 02:44:00,48.7,45.0,30.35,NE,45,0.0,0.0,87,0.00,,,0.00,pywws,2013-05-19 01:44:00,
2013-05-19 02:49:00,48.2,44.5,30.36,NE,45,0.0,0.0,87,0.00,,,0.00,pywws,2013-05-19 01:49:00,
2013-05-19 02:55:00,47.8,44.2,30.35,NE,45,0.0,0.0,87,0.00,,,0.00,pywws,2013-05-19 01:55:00,
2013-05-19 03:00:00,47.5,44.1,30.35,NE,45,0.0,0.0,88,0.00,,,0.00,pywws,2013-05-19 02:00:00,
2013-05-19 03:05:00,47.5,44.1,30.35,NE,45,0.0,0.0,88,0.00,,,0.00,pywws,2013-05-19 02:05:00,
2013-05-19 03:10:00,47.1,44.0,30.35,NE,45,0.0,0.0,89,0.00,,,0.00,pywws,2013-05-19 02:10:00,
2013-05-19 03:15:00,46.9,43.9,30.35,NE,45,0.0,0.0,89,0.00,,,0.00,pywws,2013-05-19 02:15:00,
2013-05-19 03:20:00,46.8,44.0,30.35,NE,45,0.0,0.0,90,0.00,,,0.00,pywws,2013-05-19 02:20:00,
2013-05-19 03:26:00,46.6,43.8,30.35,NE,45,0.0,0.0,90,0.00,,,0.00,pywws,2013-05-19 02:26:00,
2013-05-19 03:31:00,46.2,43.5,30.35,NE,45,0.0,0.0,90,0.00,,,0.00,pywws,2013-05-19 02:31:00,
2013-05-19 03:36:00,46.0,43.6,30.36,NE,45,0.0,0.0,91,0.00,,,0.00,pywws,2013-05-19 02:36:00,
2013-05-19 03:41:00,46.0,43.6,30.36,NE,45,0.0,0.0,91,0.00,,,0.00,pywws,2013-05-19 02:41:00,
2013-05-19 03:46:00,46.2,44.0,30.35,NE,45,0.0,0.0,92,0.00,,,0.00,pywws,2013-05-19 02:46:00,
2013-05-19 03:51:00,46.6,44.4,30.36,NE,45,0.0,0.0,92,0.00,,,0.00,pywws,2013-05-19 02:51:00,
2013-05-19 03:56:00,46.8,44.6,30.36,NE,45,0.0,0.0,92,0.00,,,0.00,pywws,2013-05-19 02:56:00,
2013-05-19 04:01:00,46.8,44.6,30.36,NE,45,0.0,0.0,92,0.00,,,0.00,pywws,2013-05-19 03:01:00,
2013-05-19 04:06:00,46.8,44.6,30.37,NE,45,0.0,0.0,92,0.00,,,0.00,pywws,2013-05-19 03:06:00,
2013-05-19 04:11:00,46.8,44.6,30.37,NE,45,0.0,0.0,92,0.00,,,0.00,pywws,2013-05-19 03:11:00,
2013-05-19 04:16:00,46.9,45.0,30.37,NE,45,0.0,0.0,93,0.00,,,0.00,pywws,2013-05-19 03:16:00,
2013-05-19 04:21:00,47.3,45.4,30.36,North,0,0.0,0.7,93,0.00,,,0.00,pywws,2013-05-19 03:21:00,
2013-05-19 04:27:00,47.3,45.4,30.37,NE,45,0.0,0.0,93,0.00,,,0.00,pywws,2013-05-19 03:27:00,
2013-05-19 04:32:00,47.5,45.8,30.37,North,0,0.0,0.0,94,0.00,,,0.00,pywws,2013-05-19 03:32:00,
2013-05-19 04:37:00,47.7,46.0,30.37,East,90,0.0,1.6,94,0.00,,,0.00,pywws,2013-05-19 03:37:00,
2013-05-19 04:42:00,48.0,46.4,30.37,NE,45,0.0,2.2,94,0.00,,,0.00,pywws,2013-05-19 03:42:00,
2013-05-19 04:47:00,48.2,46.3,30.37,NE,45,0.0,1.6,93,0.00,,,0.00,pywws,2013-05-19 03:47:00,
2013-05-19 04:52:00,48.4,46.2,30.37,NE,45,0.0,0.0,92,0.00,,,0.00,pywws,2013-05-19 03:52:00,
2013-05-19 04:57:00,48.6,46.3,30.37,NE,45,0.0,0.7,92,0.00,,,0.00,pywws,2013-05-19 03:57:00,
2013-05-19 05:01:00,48.6,46.1,30.37,NE,45,0.0,0.0,91,0.00,,,0.00,pywws,2013-05-19 04:01:00,
2013-05-19 05:02:00,48.6,46.1,30.37,NE,45,0.0,0.0,91,0.00,,,0.00,pywws,2013-05-19 04:02:00,
2013-05-19 05:03:00,48.6,46.1,30.37,NE,45,0.0,0.0,91,0.00,,,0.00,pywws,2013-05-19 04:03:00,
2013-05-19 05:08:00,48.4,45.9,30.37,NE,45,0.0,0.0,91,0.00,,,0.00,pywws,2013-05-19 04:08:00,
2013-05-19 05:13:00,48.2,45.7,30.37,NE,45,0.0,0.0,91,0.00,,,0.00,pywws,2013-05-19 04:13:00,
2013-05-19 05:19:00,48.2,45.7,30.37,NE,45,0.0,0.0,91,0.00,,,0.00,pywws,2013-05-19 04:19:00,
2013-05-19 05:24:00,47.8,45.3,30.38,NE,45,0.0,0.0,91,0.00,,,0.00,pywws,2013-05-19 04:24:00,
2013-05-19 05:29:00,47.8,45.6,30.37,North,0,0.0,0.7,92,0.00,,,0.00,pywws,2013-05-19 04:29:00,
2013-05-19 05:34:00,48.0,45.8,30.37,NE,45,0.0,0.7,92,0.00,,,0.00,pywws,2013-05-19 04:34:00,
2013-05-19 05:40:00,48.2,46.0,30.37,NE,45,0.0,0.0,92,0.00,,,0.00,pywws,2013-05-19 04:40:00,
2013-05-19 05:45:00,48.2,45.7,30.37,North,0,0.0,0.7,91,0.00,,,0.00,pywws,2013-05-19 04:45:00,
2013-05-19 05:50:00,48.4,45.9,30.37,North,0,0.0,0.0,91,0.00,,,0.00,pywws,2013-05-19 04:50:00,
2013-05-19 05:55:00,48.4,45.9,30.38,NE,45,0.0,0.7,91,0.00,,,0.00,pywws,2013-05-19 04:55:00,
2013-05-19 06:00:00,48.4,45.9,30.38,North,0,0.0,0.0,91,0.00,,,0.00,pywws,2013-05-19 05:00:00,
2013-05-19 06:06:00,48.4,45.9,30.38,North,0,0.0,0.0,91,0.00,,,0.00,pywws,2013-05-19 05:06:00,
2013-05-19 06:11:00,48.7,46.2,30.39,NE,45,0.0,0.0,91,0.00,,,0.00,pywws,2013-05-19 05:11:00,
2013-05-19 06:16:00,48.7,46.2,30.38,NE,45,0.0,0.0,91,0.00,,,0.00,pywws,2013-05-19 05:16:00,
2013-05-19 06:22:00,48.9,46.4,30.38,NW,315,0.0,0.0,91,0.00,,,0.00,pywws,2013-05-19 05:22:00,
2013-05-19 06:27:00,49.1,46.6,30.39,SW,225,0.0,0.0,91,0.00,,,0.00,pywws,2013-05-19 05:27:00,
2013-05-19 06:32:00,49.5,46.9,30.39,SW,225,0.0,0.0,91,0.00,,,0.00,pywws,2013-05-19 05:32:00,
2013-05-19 06:37:00,49.6,47.1,30.39,SW,225,0.0,0.0,91,0.00,,,0.00,pywws,2013-05-19 05:37:00,
2013-05-19 06:42:00,50.2,47.7,30.39,SW,225,0.0,0.0,91,0.00,,,0.00,pywws,2013-05-19 05:42:00,
2013-05-19 06:47:00,50.5,47.7,30.40,SW,225,0.0,0.0,90,0.00,,,0.00,pywws,2013-05-19 05:47:00,
2013-05-19 06:52:00,51.1,48.0,30.40,SW,225,0.0,0.0,89,0.00,,,0.00,pywws,2013-05-19 05:52:00,
2013-05-19 06:57:00,51.3,47.5,30.40,NE,45,0.0,1.6,87,0.00,,,0.00,pywws,2013-05-19 05:57:00,
2013-05-19 07:02:00,51.4,47.1,30.40,NE,45,2.2,4.5,85,0.00,,,0.00,pywws,2013-05-19 06:02:00,
2013-05-19 07:07:00,51.8,47.1,30.40,NE,45,0.0,0.7,84,0.00,,,0.00,pywws,2013-05-19 06:07:00,
2013-05-19 07:13:00,52.2,47.2,30.40,ENE,68,1.6,2.2,83,0.00,,,0.00,pywws,2013-05-19 06:13:00,
2013-05-19 07:18:00,52.3,47.0,30.40,NE,45,0.0,0.7,82,0.00,,,0.00,pywws,2013-05-19 06:18:00,
2013-05-19 07:23:00,52.9,47.5,30.40,North,0,0.0,0.7,82,0.00,,,0.00,pywws,2013-05-19 06:23:00,
2013-05-19 07:28:00,53.8,47.8,30.40,North,0,0.0,0.7,80,0.00,,,0.00,pywws,2013-05-19 06:28:00,
2013-05-19 07:33:00,54.1,47.1,30.40,NE,45,0.0,1.6,77,0.00,,,0.00,pywws,2013-05-19 06:33:00,
2013-05-19 07:39:00,53.8,47.1,30.40,SW,225,0.0,0.7,78,0.00,,,0.00,pywws,2013-05-19 06:39:00,
2013-05-19 07:44:00,53.4,47.1,30.41,SE,135,0.0,0.0,79,0.00,,,0.00,pywws,2013-05-19 06:44:00,
2013-05-19 07:49:00,53.4,47.1,30.40,NE,45,0.0,0.7,79,0.00,,,0.00,pywws,2013-05-19 06:49:00,
2013-05-19 07:54:00,54.0,48.3,30.40,NE,45,0.0,0.7,81,0.00,,,0.00,pywws,2013-05-19 06:54:00,
2013-05-19 07:59:00,54.1,47.1,30.40,ENE,68,0.0,2.2,77,0.00,,,0.00,pywws,2013-05-19 06:59:00,
2013-05-19 08:04:00,54.1,47.1,30.41,ENE,68,0.0,2.2,77,0.00,,,0.00,pywws,2013-05-19 07:04:00,
2013-05-19 08:10:00,54.5,47.4,30.41,West,270,0.7,1.6,77,0.00,,,0.00,pywws,2013-05-19 07:10:00,
2013-05-19 08:15:00,54.5,47.1,30.41,NE,45,0.0,0.7,76,0.00,,,0.00,pywws,2013-05-19 07:15:00,
2013-05-19 08:20:00,54.3,46.9,30.41,NE,45,0.0,2.2,76,0.00,,,0.00,pywws,2013-05-19 07:20:00,
2013-05-19 08:25:00,54.3,46.9,30.40,NE,45,0.0,1.6,76,0.00,,,0.00,pywws,2013-05-19 07:25:00,
2013-05-19 08:31:00,54.3,46.6,30.41,NE,45,0.0,1.6,75,0.00,,,0.00,pywws,2013-05-19 07:31:00,
2013-05-19 08:36:00,54.5,46.7,30.41,East,90,0.7,2.2,75,0.00,,,0.00,pywws,2013-05-19 07:36:00,
2013-05-19 08:41:00,54.7,46.9,30.42,NE,45,0.0,0.0,75,0.00,,,0.00,pywws,2013-05-19 07:41:00,
2013-05-19 08:46:00,55.4,47.3,30.42,NE,45,0.0,0.7,74,0.00,,,0.00,pywws,2013-05-19 07:46:00,
2013-05-19 08:51:00,55.9,47.4,30.42,NE,45,0.0,0.7,73,0.00,,,0.00,pywws,2013-05-19 07:51:00,
2013-05-19 08:57:00,56.1,47.2,30.42,NE,45,0.0,0.0,72,0.00,,,0.00,pywws,2013-05-19 07:57:00,
2013-05-19 09:02:00,56.3,47.4,30.42,NW,315,0.0,1.6,72,0.00,,,0.00,pywws,2013-05-19 08:02:00,
2013-05-19 09:07:00,56.3,47.0,30.41,North,0,0.0,1.6,71,0.00,,,0.00,pywws,2013-05-19 08:07:00,
2013-05-19 09:12:00,56.7,47.0,30.42,North,0,0.0,1.6,70,0.00,,,0.00,pywws,2013-05-19 08:12:00,
2013-05-19 09:17:00,56.7,45.8,30.42,NW,315,3.8,6.9,67,0.00,,,0.00,pywws,2013-05-19 08:17:00,
2013-05-19 09:22:00,57.0,46.2,30.41,North,0,1.6,3.1,67,0.00,,,0.00,pywws,2013-05-19 08:22:00,
2013-05-19 09:27:00,57.4,45.7,30.41,NE,45,3.1,6.9,65,0.00,,,0.00,pywws,2013-05-19 08:27:00,
2013-05-19 09:33:00,57.4,45.7,30.42,ENE,68,2.2,3.8,65,0.00,,,0.00,pywws,2013-05-19 08:33:00,
2013-05-19 09:39:00,57.7,45.6,30.42,North,0,2.2,5.4,64,0.00,,,0.00,pywws,2013-05-19 08:39:00,
2013-05-19 09:44:00,58.1,46.0,30.42,North,0,2.2,3.8,64,0.00,,,0.00,pywws,2013-05-19 08:44:00,
2013-05-19 09:49:00,58.1,46.4,30.42,NE,45,1.6,4.5,65,0.00,,,0.00,pywws,2013-05-19 08:49:00,
2013-05-19 09:54:00,57.7,45.6,30.41,North,0,1.6,3.8,64,0.00,,,0.00,pywws,2013-05-19 08:54:00,
2013-05-19 09:59:00,57.6,45.9,30.41,East,90,1.6,3.1,65,0.00,,,0.00,pywws,2013-05-19 08:59:00,
2013-05-19 10:04:00,57.7,46.1,30.41,East,90,1.6,6.0,65,0.00,,,0.00,pywws,2013-05-19 09:04:00,
2013-05-19 10:10:00,58.1,46.0,30.42,East,90,1.6,3.8,64,0.00,,,0.00,pywws,2013-05-19 09:10:00,
2013-05-19 10:15:00,58.5,46.3,30.42,NW,315,1.6,3.1,64,0.00,,,0.00,pywws,2013-05-19 09:15:00,
2013-05-19 10:21:00,58.5,45.9,30.42,NE,45,3.8,7.6,63,0.00,,,0.00,pywws,2013-05-19 09:21:00,
2013-05-19 10:26:00,58.1,46.0,30.42,North,0,3.1,6.9,64,0.00,,,0.00,pywws,2013-05-19 09:26:00,
2013-05-19 10:31:00,58.3,45.7,30.42,East,90,3.1,6.0,63,0.00,,,0.00,pywws,2013-05-19 09:31:00,
2013-05-19 10:36:00,58.8,46.7,30.43,East,90,2.2,3.8,64,0.00,,,0.00,pywws,2013-05-19 09:36:00,
2013-05-19 10:41:00,58.8,46.3,30.44,North,0,3.1,5.4,63,0.00,,,0.00,pywws,2013-05-19 09:41:00,
2013-05-19 10:46:00,58.5,45.9,30.43,NE,45,2.2,5.4,63,0.00,,,0.00,pywws,2013-05-19 09:46:00,
2013-05-19 10:51:00,58.1,46.0,30.44,SSW,202,2.2,5.4,64,0.00,,,0.00,pywws,2013-05-19 09:51:00,
2013-05-19 10:56:00,58.1,46.4,30.43,North,0,2.2,3.8,65,0.00,,,0.00,pywws,2013-05-19 09:56:00,
2013-05-19 11:02:00,58.5,46.7,30.44,NE,45,1.6,3.8,65,0.00,,,0.00,pywws,2013-05-19 10:02:00,
2013-05-19 11:07:00,58.5,46.7,30.44,NE,45,1.6,3.8,65,0.00,,,0.00,pywws,2013-05-19 10:07:00,
2013-05-19 11:12:00,59.9,47.3,30.43,East,90,1.6,3.1,63,0.00,,,0.00,pywws,2013-05-19 10:12:00,
2013-05-19 11:17:00,60.6,48.0,30.44,NE,45,2.2,4.5,63,0.00,,,0.00,pywws,2013-05-19 10:17:00,
2013-05-19 11:22:00,60.8,47.3,30.44,NE,45,3.1,4.5,61,0.00,,,0.00,pywws,2013-05-19 10:22:00,
2013-05-19 11:27:00,60.4,46.9,30.44,SW,225,2.2,6.9,61,0.00,,,0.00,pywws,2013-05-19 10:27:00,
2013-05-19 11:33:00,61.5,47.9,30.43,NE,45,2.2,3.8,61,0.00,,,0.00,pywws,2013-05-19 10:33:00,
2013-05-19 11:38:00,61.5,47.5,30.44,West,270,0.7,3.1,60,0.00,,,0.00,pywws,2013-05-19 10:38:00,
2013-05-19 11:43:00,61.2,47.2,30.43,East,90,0.7,1.6,60,0.00,,,0.00,pywws,2013-05-19 10:43:00,
2013-05-19 11:48:00,61.9,46.9,30.43,North,0,0.7,2.2,58,0.00,,,0.00,pywws,2013-05-19 10:48:00,
2013-05-19 11:53:00,61.5,47.1,30.44,NE,45,1.6,4.5,59,0.00,,,0.00,pywws,2013-05-19 10:53:00,
2013-05-19 11:58:00,61.2,47.2,30.44,East,90,0.0,1.6,60,0.00,,,0.00,pywws,2013-05-19 10:58:00,
2013-05-19 12:03:00,61.2,47.2,30.44,East,90,0.7,2.2,60,0.00,,,0.00,pywws,2013-05-19 11:03:00,
2013-05-19 12:08:00,60.4,46.5,30.44,NE,45,0.7,3.1,60,0.00,,,0.00,pywws,2013-05-19 11:08:00,
2013-05-19 12:13:00,60.4,46.5,30.44,North,0,0.7,3.1,60,0.00,,,0.00,pywws,2013-05-19 11:13:00,
2013-05-19 12:19:00,61.3,46.9,30.44,North,0,0.7,3.1,59,0.00,,,0.00,pywws,2013-05-19 11:19:00,
2013-05-19 12:24:00,61.7,46.8,30.44,East,90,1.6,4.5,58,0.00,,,0.00,pywws,2013-05-19 11:24:00,
2013-05-19 12:29:00,61.7,46.8,30.44,East,90,0.7,2.2,58,0.00,,,0.00,pywws,2013-05-19 11:29:00,
2013-05-19 12:34:00,61.5,46.6,30.44,SE,135,1.6,3.8,58,0.00,,,0.00,pywws,2013-05-19 11:34:00,
2013-05-19 12:39:00,62.1,47.6,30.44,East,90,0.0,1.6,59,0.00,,,0.00,pywws,2013-05-19 11:39:00,
2013-05-19 12:44:00,63.7,47.2,30.44,NNE,22,2.2,4.5,55,0.00,,,0.00,pywws,2013-05-19 11:44:00,
2013-05-19 12:49:00,64.2,46.7,30.44,NE,45,1.6,3.8,53,0.00,,,0.00,pywws,2013-05-19 11:49:00,
2013-05-19 12:55:00,64.8,48.2,30.44,NE,45,1.6,3.1,55,0.00,,,0.00,pywws,2013-05-19 11:55:00,
2013-05-19 13:00:00,65.1,47.6,30.44,East,90,2.2,5.4,53,0.00,,,0.00,pywws,2013-05-19 12:00:00,
2013-05-19 13:05:00,65.1,47.6,30.43,East,90,2.2,5.4,53,0.00,,,0.00,pywws,2013-05-19 12:05:00,
2013-05-19 13:10:00,65.5,47.4,30.43,East,90,0.7,3.8,52,0.00,,,0.00,pywws,2013-05-19 12:10:00,
2013-05-19 13:15:00,65.8,47.7,30.43,NE,45,0.7,3.8,52,0.00,,,0.00,pywws,2013-05-19 12:15:00,
2013-05-19 13:21:00,66.2,48.0,30.44,NE,45,0.7,3.1,52,0.00,,,0.00,pywws,2013-05-19 12:21:00,
2013-05-19 13:26:00,66.9,47.1,30.43,NNE,22,1.6,3.8,49,0.00,,,0.00,pywws,2013-05-19 12:26:00,
2013-05-19 13:31:00,66.7,48.0,30.43,NE,45,1.6,3.8,51,0.00,,,0.00,pywws,2013-05-19 12:31:00,
2013-05-19 13:36:00,67.1,47.8,30.43,North,0,3.8,7.6,50,0.00,,,0.00,pywws,2013-05-19 12:36:00,
2013-05-19 13:41:00,66.9,48.2,30.43,NE,45,1.6,4.5,51,0.00,,,0.00,pywws,2013-05-19 12:41:00,
2013-05-19 13:46:00,67.3,49.6,30.44,SE,135,1.6,3.8,53,0.00,,,0.00,pywws,2013-05-19 12:46:00,
2013-05-19 13:51:00,67.8,48.0,30.43,South,180,2.2,6.0,49,0.00,,,0.00,pywws,2013-05-19 12:51:00,
2013-05-19 13:57:00,68.7,48.8,30.43,NW,315,1.6,4.5,49,0.00,,,0.00,pywws,2013-05-19 12:57:00,
2013-05-19 14:02:00,69.4,49.4,30.43,East,90,0.7,3.8,49,0.00,,,0.00,pywws,2013-05-19 13:02:00,
2013-05-19 14:07:00,69.4,49.4,30.43,East,90,0.7,3.8,49,0.00,,,0.00,pywws,2013-05-19 13:07:00,
2013-05-19 14:12:00,69.1,48.0,30.44,East,90,3.8,6.9,47,0.00,,,0.00,pywws,2013-05-19 13:12:00,
2013-05-19 14:17:00,68.7,48.2,30.44,NE,45,2.2,6.0,48,0.00,,,0.00,pywws,2013-05-19 13:17:00,
2013-05-19 14:22:00,68.5,48.6,30.44,NE,45,0.7,1.6,49,0.00,,,0.00,pywws,2013-05-19 13:22:00,
2013-05-19 14:27:00,68.0,49.2,30.43,NE,45,0.7,3.8,51,0.00,,,0.00,pywws,2013-05-19 13:27:00,
2013-05-19 14:32:00,67.1,48.4,30.44,NE,45,2.2,5.4,51,0.00,,,0.00,pywws,2013-05-19 13:32:00,
2013-05-19 14:37:00,67.8,48.5,30.43,North,0,3.1,6.0,50,0.00,,,0.00,pywws,2013-05-19 13:37:00,
2013-05-19 14:43:00,68.0,48.7,30.43,East,90,0.7,1.6,50,0.00,,,0.00,pywws,2013-05-19 13:43:00,
2013-05-19 14:48:00,68.9,48.4,30.43,South,180,0.7,4.5,48,0.00,,,0.00,pywws,2013-05-19 13:48:00,
2013-05-19 14:53:00,69.3,48.7,30.44,East,90,1.6,6.0,48,0.00,,,0.00,pywws,2013-05-19 13:53:00,
2013-05-19 14:58:00,70.3,49.1,30.43,SE,135,0.7,2.2,47,0.00,,,0.00,pywws,2013-05-19 13:58:00,
2013-05-19 15:03:00,71.1,48.0,30.43,NNE,22,3.1,8.3,44,0.00,,,0.00,pywws,2013-05-19 14:03:00,
2013-05-19 15:08:00,70.9,47.9,30.43,NE,45,2.2,4.5,44,0.00,,,0.00,pywws,2013-05-19 14:08:00,
2013-05-19 15:13:00,69.4,48.3,30.43,NW,315,0.0,2.2,47,0.00,,,0.00,pywws,2013-05-19 14:13:00,
2013-05-19 15:18:00,68.5,48.1,30.43,SW,225,1.6,3.8,48,0.00,,,0.00,pywws,2013-05-19 14:18:00,
2013-05-19 15:23:00,68.4,48.4,30.43,SW,225,0.7,3.1,49,0.00,,,0.00,pywws,2013-05-19 14:23:00,
2013-05-19 15:28:00,68.9,48.9,30.43,NNW,338,0.7,2.2,49,0.00,,,0.00,pywws,2013-05-19 14:28:00,
2013-05-19 15:34:00,68.2,48.8,30.42,SW,225,0.0,2.2,50,0.00,,,0.00,pywws,2013-05-19 14:34:00,
2013-05-19 15:39:00,67.3,48.0,30.42,WNW,292,1.6,3.8,50,0.00,,,0.00,pywws,2013-05-19 14:39:00,
2013-05-19 15:44:00,66.7,48.5,30.42,NE,45,0.0,1.6,52,0.00,,,0.00,pywws,2013-05-19 14:44:00,
2013-05-19 15:49:00,68.0,49.7,30.42,NE,45,0.0,2.2,52,0.00,,,0.00,pywws,2013-05-19 14:49:00,
2013-05-19 15:55:00,69.4,50.0,30.42,NW,315,0.0,1.6,50,0.00,,,0.00,pywws,2013-05-19 14:55:00,
2013-05-19 16:00:00,70.2,48.4,30.42,North,0,2.2,4.5,46,0.00,,,0.00,pywws,2013-05-19 15:00:00,
2013-05-19 16:05:00,70.2,48.4,30.42,North,0,2.2,4.5,46,0.00,,,0.00,pywws,2013-05-19 15:05:00,
2013-05-19 16:10:00,72.0,49.4,30.42,North,0,0.7,3.1,45,0.00,,,0.00,pywws,2013-05-19 15:10:00,
2013-05-19 16:15:00,73.2,48.1,30.42,NE,45,3.1,9.8,41,0.00,,,0.00,pywws,2013-05-19 15:15:00,
2013-05-19 16:20:00,72.0,48.2,30.42,SW,225,2.2,9.2,43,0.00,,,0.00,pywws,2013-05-19 15:20:00,
2013-05-19 16:25:00,72.0,48.8,30.42,NE,45,0.0,0.7,44,0.00,,,0.00,pywws,2013-05-19 15:25:00,
2013-05-19 16:31:00,72.9,49.0,30.42,NE,45,0.7,3.1,43,0.00,,,0.00,pywws,2013-05-19 15:31:00,
2013-05-19 16:36:00,70.3,47.4,30.42,NE,45,1.6,6.0,44,0.00,,,0.00,pywws,2013-05-19 15:36:00,
2013-05-19 16:41:00,68.7,48.2,30.41,NW,315,0.7,3.1,48,0.00,,,0.00,pywws,2013-05-19 15:41:00,
2013-05-19 16:46:00,69.4,49.4,30.42,ENE,68,1.6,3.8,49,0.00,,,0.00,pywws,2013-05-19 15:46:00,
2013-05-19 16:51:00,70.5,49.3,30.42,East,90,0.0,0.7,47,0.00,,,0.00,pywws,2013-05-19 15:51:00,
2013-05-19 16:56:00,72.0,49.4,30.42,NNW,338,0.0,0.7,45,0.00,,,0.00,pywws,2013-05-19 15:56:00,
2013-05-19 17:02:00,72.7,48.9,30.42,NW,315,0.7,2.2,43,0.00,,,0.00,pywws,2013-05-19 16:02:00,
2013-05-19 17:07:00,71.6,49.1,30.42,NE,45,1.6,3.1,45,0.00,,,0.00,pywws,2013-05-19 16:07:00,
2013-05-19 17:12:00,71.2,49.4,30.42,SW,225,0.7,3.1,46,0.00,,,0.00,pywws,2013-05-19 16:12:00,
2013-05-19 17:17:00,69.4,48.3,30.42,SE,135,0.0,2.2,47,0.00,,,0.00,pywws,2013-05-19 16:17:00,
2013-05-19 17:22:00,69.1,49.1,30.42,North,0,0.7,3.1,49,0.00,,,0.00,pywws,2013-05-19 16:22:00,
2013-05-19 17:27:00,69.8,49.8,30.42,North,0,0.7,1.6,49,0.00,,,0.00,pywws,2013-05-19 16:27:00,
2013-05-19 17:32:00,69.4,49.4,30.42,SSW,202,0.7,2.2,49,0.00,,,0.00,pywws,2013-05-19 16:32:00,
2013-05-19 17:37:00,70.2,49.0,30.42,NE,45,1.6,3.8,47,0.00,,,0.00,pywws,2013-05-19 16:37:00,
2013-05-19 17:43:00,68.9,48.9,30.42,East,90,0.7,2.2,49,0.00,,,0.00,pywws,2013-05-19 16:43:00,
2013-05-19 17:48:00,67.5,48.7,30.42,SE,135,0.0,0.7,51,0.00,,,0.00,pywws,2013-05-19 16:48:00,
2013-05-19 17:53:00,67.1,47.8,30.43,East,90,1.6,3.1,50,0.00,,,0.00,pywws,2013-05-19 16:53:00,
2013-05-19 17:58:00,66.7,48.0,30.42,North,0,0.7,3.1,51,0.00,,,0.00,pywws,2013-05-19 16:58:00,
2013-05-19 18:03:00,66.7,48.0,30.43,NE,45,2.2,7.6,51,0.00,,,0.00,pywws,2013-05-19 17:03:00,
2013-05-19 18:08:00,66.4,47.7,30.43,ENE,68,0.7,3.1,51,0.00,,,0.00,pywws,2013-05-19 17:08:00,
2013-05-19 18:13:00,65.8,47.7,30.42,NE,45,3.1,5.4,52,0.00,,,0.00,pywws,2013-05-19 17:13:00,
2013-05-19 18:19:00,65.7,48.1,30.42,NE,45,1.6,3.8,53,0.00,,,0.00,pywws,2013-05-19 17:19:00,
2013-05-19 18:24:00,65.7,48.1,30.43,East,90,0.0,1.6,53,0.00,,,0.00,pywws,2013-05-19 17:24:00,
2013-05-19 18:30:00,66.2,48.6,30.42,SW,225,0.7,1.6,53,0.00,,,0.00,pywws,2013-05-19 17:30:00,
2013-05-19 18:35:00,67.6,48.3,30.43,NW,315,0.0,0.7,50,0.00,,,0.00,pywws,2013-05-19 17:35:00,
2013-05-19 18:40:00,66.9,48.7,30.42,NE,45,0.0,2.2,52,0.00,,,0.00,pywws,2013-05-19 17:40:00,
2013-05-19 18:45:00,66.9,47.7,30.43,NE,45,1.6,6.0,50,0.00,,,0.00,pywws,2013-05-19 17:45:00,
2013-05-19 18:50:00,66.9,48.2,30.43,East,90,1.6,4.5,51,0.00,,,0.00,pywws,2013-05-19 17:50:00,
2013-05-19 18:55:00,68.0,47.6,30.43,NNE,22,2.2,6.9,48,0.00,,,0.00,pywws,2013-05-19 17:55:00,
2013-05-19 19:00:00,68.4,47.9,30.43,NE,45,1.6,3.1,48,0.00,,,0.00,pywws,2013-05-19 18:00:00,
2013-05-19 19:05:00,68.4,47.9,30.43,NE,45,1.6,3.1,48,0.00,,,0.00,pywws,2013-05-19 18:05:00,
2013-05-19 19:10:00,68.4,47.9,30.43,NE,45,1.6,3.1,48,0.00,,,0.00,pywws,2013-05-19 18:10:00,
2013-05-19 19:15:00,65.1,47.6,30.43,East,90,0.7,3.1,53,0.00,,,0.00,pywws,2013-05-19 18:15:00,
2013-05-19 19:20:00,65.1,48.1,30.43,North,0,0.0,2.2,54,0.00,,,0.00,pywws,2013-05-19 18:20:00,
2013-05-19 19:25:00,66.6,48.4,30.43,East,90,0.0,2.2,52,0.00,,,0.00,pywws,2013-05-19 18:25:00,
2013-05-19 19:31:00,68.2,48.3,30.43,East,90,0.7,3.1,49,0.00,,,0.00,pywws,2013-05-19 18:31:00,
2013-05-19 19:36:00,68.5,48.6,30.43,NE,45,0.0,0.7,49,0.00,,,0.00,pywws,2013-05-19 18:36:00,
2013-05-19 19:41:00,68.5,48.1,30.43,NNE,22,0.0,2.2,48,0.00,,,0.00,pywws,2013-05-19 18:41:00,
2013-05-19 19:46:00,68.2,47.7,30.43,NE,45,0.7,3.1,48,0.00,,,0.00,pywws,2013-05-19 18:46:00,
2013-05-19 19:51:00,67.5,48.2,30.43,NNE,22,0.7,1.6,50,0.00,,,0.00,pywws,2013-05-19 18:51:00,
2013-05-19 19:56:00,66.9,48.2,30.43,East,90,0.0,2.2,51,0.00,,,0.00,pywws,2013-05-19 18:56:00,
2013-05-19 20:01:00,66.9,48.2,30.43,North,0,0.7,2.2,51,0.00,,,0.00,pywws,2013-05-19 19:01:00,
2013-05-19 20:07:00,65.7,48.1,30.43,East,90,0.7,3.1,53,0.00,,,0.00,pywws,2013-05-19 19:07:00,
2013-05-19 20:12:00,64.8,48.2,30.43,East,90,0.7,1.6,55,0.00,,,0.00,pywws,2013-05-19 19:12:00,
2013-05-19 20:17:00,64.2,48.2,30.44,North,0,1.6,3.1,56,0.00,,,0.00,pywws,2013-05-19 19:17:00,
2013-05-19 20:22:00,63.7,48.2,30.44,SE,135,0.0,2.2,57,0.00,,,0.00,pywws,2013-05-19 19:22:00,
2013-05-19 20:27:00,63.3,48.3,30.44,NE,45,0.7,1.6,58,0.00,,,0.00,pywws,2013-05-19 19:27:00,
2013-05-19 20:32:00,63.0,48.4,30.44,North,0,0.0,1.6,59,0.00,,,0.00,pywws,2013-05-19 19:32:00,
2013-05-19 20:37:00,62.6,48.5,30.44,NE,45,0.7,1.6,60,0.00,,,0.00,pywws,2013-05-19 19:37:00,
2013-05-19 20:43:00,62.4,48.3,30.44,NE,45,0.0,2.2,60,0.00,,,0.00,pywws,2013-05-19 19:43:00,
2013-05-19 20:48:00,61.7,48.5,30.45,NE,45,0.0,3.1,62,0.00,,,0.00,pywws,2013-05-19 19:48:00,
2013-05-19 20:53:00,61.3,48.2,30.44,East,90,0.0,0.0,62,0.00,,,0.00,pywws,2013-05-19 19:53:00,
2013-05-19 20:58:00,61.3,48.2,30.44,NW,315,0.0,0.0,62,0.00,,,0.00,pywws,2013-05-19 19:58:00,
2013-05-19 21:04:00,61.0,48.3,30.44,NW,315,0.0,0.0,63,0.00,,,0.00,pywws,2013-05-19 20:04:00,
2013-05-19 21:09:00,60.6,48.4,30.44,North,0,0.0,2.2,64,0.00,,,0.00,pywws,2013-05-19 20:09:00,
2013-05-19 21:14:00,59.7,48.3,30.45,NE,45,0.0,0.0,66,0.00,,,0.00,pywws,2013-05-19 20:14:00,
2013-05-19 21:19:00,59.4,48.4,30.45,NE,45,0.0,0.0,67,0.00,,,0.00,pywws,2013-05-19 20:19:00,
2013-05-19 21:24:00,59.0,48.1,30.45,North,0,0.0,0.0,67,0.00,,,0.00,pywws,2013-05-19 20:24:00,
2013-05-19 21:29:00,58.6,48.1,30.45,North,0,0.0,0.0,68,0.00,,,0.00,pywws,2013-05-19 20:29:00,
2013-05-19 21:34:00,58.1,48.0,30.45,North,0,0.0,0.0,69,0.00,,,0.00,pywws,2013-05-19 20:34:00,
2013-05-19 21:39:00,57.6,47.8,30.45,North,0,0.0,0.0,70,0.00,,,0.00,pywws,2013-05-19 20:39:00,
2013-05-19 21:45:00,56.8,47.5,30.45,North,0,0.0,0.0,71,0.00,,,0.00,pywws,2013-05-19 20:45:00,
2013-05-19 21:50:00,56.3,47.4,30.45,North,0,0.0,0.0,72,0.00,,,0.00,pywws,2013-05-19 20:50:00,
2013-05-19 21:55:00,56.5,47.2,30.45,North,0,0.0,0.0,71,0.00,,,0.00,pywws,2013-05-19 20:55:00,
2013-05-19 22:00:00,55.6,47.4,30.45,North,0,0.0,0.0,74,0.00,,,0.00,pywws,2013-05-19 21:00:00,
2013-05-19 22:06:00,55.6,47.4,30.45,North,0,0.0,0.0,74,0.00,,,0.00,pywws,2013-05-19 21:06:00,
2013-05-19 22:11:00,55.0,47.6,30.45,North,0,0.0,0.0,76,0.00,,,0.00,pywws,2013-05-19 21:11:00,
2013-05-19 22:16:00,54.9,47.8,30.45,North,0,0.0,0.0,77,0.00,,,0.00,pywws,2013-05-19 21:16:00,
2013-05-19 22:21:00,54.9,48.1,30.45,North,0,0.0,0.0,78,0.00,,,0.00,pywws,2013-05-19 21:21:00,
2013-05-19 22:26:00,54.9,48.1,30.45,North,0,0.0,0.0,78,0.00,,,0.00,pywws,2013-05-19 21:26:00,
2013-05-19 22:31:00,54.9,48.5,30.45,North,0,0.0,0.0,79,0.00,,,0.00,pywws,2013-05-19 21:31:00,
2013-05-19 22:36:00,54.9,48.1,30.45,North,0,0.0,0.0,78,0.00,,,0.00,pywws,2013-05-19 21:36:00,
2013-05-19 22:42:00,54.9,48.5,30.45,North,0,0.0,0.0,79,0.00,,,0.00,pywws,2013-05-19 21:42:00,
2013-05-19 22:47:00,54.9,48.5,30.45,North,0,0.0,0.0,79,0.00,,,0.00,pywws,2013-05-19 21:47:00,
2013-05-19 22:52:00,54.9,48.5,30.45,North,0,0.0,0.0,79,0.00,,,0.00,pywws,2013-05-19 21:52:00,
2013-05-19 22:57:00,54.7,48.3,30.45,North,0,0.0,0.0,79,0.00,,,0.00,pywws,2013-05-19 21:57:00,
2013-05-19 23:02:00,54.7,48.3,30.45,North,0,0.0,0.0,79,0.00,,,0.00,pywws,2013-05-19 22:02:00,
2013-05-19 23:07:00,54.7,48.6,30.45,North,0,0.0,0.0,80,0.00,,,0.00,pywws,2013-05-19 22:07:00,
2013-05-19 23:12:00,54.5,48.5,30.45,North,0,0.0,0.0,80,0.00,,,0.00,pywws,2013-05-19 22:12:00,
2013-05-19 23:17:00,54.3,48.3,30.45,North,0,0.0,0.0,80,0.00,,,0.00,pywws,2013-05-19 22:17:00,
2013-05-19 23:23:00,54.3,48.6,30.45,North,0,0.0,0.0,81,0.00,,,0.00,pywws,2013-05-19 22:23:00,
2013-05-19 23:28:00,54.3,48.6,30.44,North,0,0.0,0.0,81,0.00,,,0.00,pywws,2013-05-19 22:28:00,
2013-05-19 23:33:00,54.3,48.9,30.45,North,0,0.0,0.0,82,0.00,,,0.00,pywws,2013-05-19 22:33:00,
2013-05-19 23:39:00,54.3,48.9,30.45,North,0,0.0,0.0,82,0.00,,,0.00,pywws,2013-05-19 22:39:00,
2013-05-19 23:44:00,54.3,48.9,30.45,North,0,0.0,0.0,82,0.00,,,0.00,pywws,2013-05-19 22:44:00,
2013-05-19 23:49:00,54.3,48.9,30.45,SE,135,0.0,0.0,82,0.00,,,0.00,pywws,2013-05-19 22:49:00,
2013-05-19 23:55:00,54.3,48.9,30.45,SE,135,0.0,0.0,82,0.00,,,0.00,pywws,2013-05-19 22:55:00,